When you browse on this site, cookies collect data to enhance your experience and personalize the content and advertising you see.
Visit our Privacy Policy to learn more. By continuing to use the site, you agree to this use of cookies and data.
  • în România
  • Lista ţărilor
  • Pe 7 zile
  • Temperatura apei
  • Hartă satelitară
  • Meteo pe hartă
  • Widget-uri
  • user-avatar
    Intrare

    Meteo pe oră la Podgory

    Astăzi, 20 Ianuarie, Duminică

    Timp Temperatura Precipitaţii Vânt Presiune Umiditate
    00:00 -1°C° 0.8 mm 3 m/s 753 mmHg 96%
    01:00 -2°C° 0.3 mm 3 m/s 753 mmHg 95%
    02:00 -4°C° 0.3 mm 4 m/s 754 mmHg 94%
    03:00 -4°C° 0 mm 4 m/s 754 mmHg 93%
    04:00 -7°C° 0 mm 4 m/s 754 mmHg 91%
    05:00 -9°C° 0 mm 4 m/s 755 mmHg 90%
    06:00 -12°C° 0 mm 4 m/s 755 mmHg 89%
    07:00 -12°C° 0 mm 4 m/s 756 mmHg 89%
    08:00 -14°C° 0 mm 4 m/s 757 mmHg 89%
    09:00 -13°C° 0 mm 3 m/s 757 mmHg 90%
    10:00 -14°C° 0 mm 4 m/s 758 mmHg 90%
    11:00 -12°C° 0 mm 4 m/s 758 mmHg 91%
    12:00 -11°C° 0 mm 4 m/s 759 mmHg 91%
    13:00 -11°C° 0 mm 4 m/s 759 mmHg 90%
    14:00 -10°C° 0 mm 4 m/s 760 mmHg 89%
    15:00 -10°C° 0 mm 4 m/s 760 mmHg 88%
    16:00 -10°C° 0 mm 3 m/s 760 mmHg 88%
    17:00 -10°C° 0 mm 3 m/s 761 mmHg 89%
    18:00 -10°C° 0 mm 2 m/s 761 mmHg 89%
    19:00 -12°C° 0 mm 2 m/s 761 mmHg 90%
    20:00 -14°C° 0 mm 3 m/s 761 mmHg 91%
    21:00 -15°C° 0 mm 3 m/s 761 mmHg 92%
    22:00 -15°C° 0 mm 3 m/s 761 mmHg 93%
    23:00 -15°C° 0 mm 3 m/s 762 mmHg 93%

    Mâine, 21 Ianuarie, Luni

    Timp Temperatura Precipitaţii Vânt Presiune Umiditate
    00:00 -15°C° 0 mm 3 m/s 762 mmHg 93%
    01:00 -16°C° 0 mm 4 m/s 762 mmHg 93%
    02:00 -16°C° 0 mm 4 m/s 762 mmHg 94%
    03:00 -16°C° 0 mm 4 m/s 762 mmHg 94%
    04:00 -16°C° 0 mm 4 m/s 761 mmHg 94%
    05:00 -17°C° 0 mm 5 m/s 761 mmHg 94%
    06:00 -17°C° 0 mm 5 m/s 761 mmHg 95%
    07:00 -15°C° 0 mm 5 m/s 761 mmHg 94%
    08:00 -16°C° 0 mm 6 m/s 761 mmHg 94%
    09:00 -16°C° 0 mm 6 m/s 761 mmHg 94%
    10:00 -15°C° 0 mm 6 m/s 761 mmHg 93%
    11:00 -15°C° 0 mm 6 m/s 760 mmHg 93%
    12:00 -14°C° 0 mm 6 m/s 760 mmHg 92%
    13:00 -14°C° 0 mm 6 m/s 760 mmHg 92%
    14:00 -14°C° 0 mm 6 m/s 759 mmHg 92%
    15:00 -13°C° 0 mm 5 m/s 759 mmHg 92%
    16:00 -13°C° 0.4 mm 5 m/s 758 mmHg 93%
    17:00 -14°C° 0.4 mm 6 m/s 757 mmHg 93%
    18:00 -14°C° 0.4 mm 6 m/s 757 mmHg 94%
    19:00 -14°C° 0.8 mm 6 m/s 756 mmHg 94%
    20:00 -12°C° 0.8 mm 6 m/s 755 mmHg 94%
    21:00 -12°C° 0.8 mm 6 m/s 754 mmHg 94%
    22:00 -11°C° 0.7 mm 5 m/s 753 mmHg 94%
    23:00 -11°C° 0.7 mm 5 m/s 752 mmHg 94%

    Poimâine, 22 Ianuarie, Marţi

    Timp Temperatura Precipitaţii Vânt Presiune Umiditate
    00:00 -9°C° 0.7 mm 4 m/s 751 mmHg 94%
    01:00 -9°C° 0.6 mm 4 m/s 751 mmHg 95%
    02:00 -7°C° 0.6 mm 3 m/s 751 mmHg 95%
    03:00 -7°C° 0.6 mm 3 m/s 750 mmHg 96%
    04:00 -8°C° 0 mm 3 m/s 751 mmHg 94%
    05:00 -10°C° 0 mm 4 m/s 751 mmHg 93%
    06:00 -12°C° 0 mm 4 m/s 752 mmHg 91%
    07:00 -12°C° 0 mm 4 m/s 753 mmHg 90%
    08:00 -13°C° 0 mm 5 m/s 754 mmHg 89%
    09:00 -13°C° 0 mm 5 m/s 755 mmHg 88%
    10:00 -13°C° 0 mm 5 m/s 755 mmHg 87%
    11:00 -14°C° 0 mm 5 m/s 756 mmHg 86%
    12:00 -14°C° 0 mm 4 m/s 757 mmHg 84%
    13:00 -15°C° 0 mm 4 m/s 757 mmHg 86%
    14:00 -16°C° 0 mm 4 m/s 758 mmHg 87%
    15:00 -16°C° 0 mm 3 m/s 758 mmHg 88%
    16:00 -17°C° 0 mm 3 m/s 758 mmHg 90%
    17:00 -18°C° 0 mm 3 m/s 759 mmHg 91%
    18:00 -18°C° 0 mm 2 m/s 759 mmHg 92%
    19:00 -18°C° 0 mm 2 m/s 760 mmHg 93%
    20:00 -19°C° 0 mm 2 m/s 760 mmHg 93%
    21:00 -21°C° 0 mm 3 m/s 760 mmHg 94%
    22:00 -22°C° 0 mm 3 m/s 761 mmHg 95%
    23:00 -20°C° 0 mm 2 m/s 761 mmHg 95%

    23 Ianuarie, Miercuri

    Timp Temperatura Precipitaţii Vânt Presiune Umiditate
    00:00 -21°C° 0 mm 2 m/s 762 mmHg 96%
    01:00 -21°C° 0 mm 2 m/s 762 mmHg 96%
    02:00 -23°C° 0 mm 2 m/s 763 mmHg 97%
    03:00 -24°C° 0 mm 2 m/s 763 mmHg 97%
    04:00 -24°C° 0 mm 2 m/s 764 mmHg 98%
    05:00 -24°C° 0 mm 2 m/s 764 mmHg 98%
    06:00 -25°C° 0 mm 2 m/s 765 mmHg 99%
    07:00 -24°C° 0 mm 2 m/s 765 mmHg 98%
    08:00 -24°C° 0 mm 2 m/s 766 mmHg 98%
    09:00 -24°C° 0 mm 2 m/s 766 mmHg 98%
    10:00 -21°C° 0 mm 2 m/s 767 mmHg 97%
    11:00 -20°C° 0 mm 2 m/s 767 mmHg 95%
    12:00 -18°C° 0 mm 2 m/s 767 mmHg 94%
    13:00 -18°C° 0 mm 2 m/s 767 mmHg 94%
    14:00 -19°C° 0 mm 2 m/s 768 mmHg 94%
    15:00 -19°C° 0 mm 2 m/s 768 mmHg 95%
    16:00 -19°C° 0 mm 2 m/s 768 mmHg 96%
    17:00 -20°C° 0 mm 2 m/s 768 mmHg 97%
    18:00 -21°C° 0 mm 2 m/s 769 mmHg 98%
    19:00 -21°C° 0 mm 2 m/s 769 mmHg 98%
    20:00 -21°C° 0 mm 2 m/s 769 mmHg 98%
    21:00 -21°C° 0 mm 2 m/s 769 mmHg 98%
    22:00 -21°C° 0 mm 2 m/s 769 mmHg 98%
    23:00 -23°C° 0 mm 3 m/s 769 mmHg 98%

    24 Ianuarie, Joi

    Timp Temperatura Precipitaţii Vânt Presiune Umiditate
    00:00 -23°C° 0 mm 3 m/s 770 mmHg 97%
    01:00 -23°C° 0 mm 3 m/s 770 mmHg 97%
    02:00 -22°C° 0 mm 3 m/s 770 mmHg 97%
    03:00 -22°C° 0 mm 3 m/s 769 mmHg 97%
    04:00 -23°C° 0 mm 4 m/s 769 mmHg 96%
    05:00 -23°C° 0 mm 4 m/s 769 mmHg 96%
    06:00 -22°C° 0 mm 4 m/s 769 mmHg 95%
    07:00 -22°C° 0 mm 4 m/s 769 mmHg 95%
    08:00 -22°C° 0 mm 5 m/s 769 mmHg 94%
    09:00 -21°C° 0 mm 5 m/s 770 mmHg 94%
    10:00 -21°C° 0 mm 5 m/s 769 mmHg 92%
    11:00 -20°C° 0 mm 5 m/s 769 mmHg 91%
    12:00 -20°C° 0 mm 6 m/s 769 mmHg 90%
    13:00 -20°C° 0 mm 6 m/s 769 mmHg 89%
    14:00 -20°C° 0 mm 6 m/s 769 mmHg 88%
    15:00 -20°C° 0 mm 6 m/s 769 mmHg 87%
    16:00 -20°C° 0 mm 5 m/s 769 mmHg 88%
    17:00 -20°C° 0 mm 5 m/s 769 mmHg 88%
    18:00 -21°C° 0 mm 5 m/s 769 mmHg 88%
    19:00 -21°C° 0 mm 5 m/s 769 mmHg 88%
    20:00 -22°C° 0 mm 5 m/s 768 mmHg 87%
    21:00 -22°C° 0 mm 5 m/s 768 mmHg 87%
    22:00 -22°C° 0 mm 4 m/s 768 mmHg 87%
    23:00 -23°C° 0 mm 4 m/s 768 mmHg 87%

    25 Ianuarie, Vineri

    Timp Temperatura Precipitaţii Vânt Presiune Umiditate
    00:00 -23°C° 0 mm 4 m/s 768 mmHg 87%
    01:00 -23°C° 0 mm 4 m/s 768 mmHg 88%
    02:00 -23°C° 0 mm 3 m/s 768 mmHg 89%
    03:00 -23°C° 0 mm 3 m/s 768 mmHg 90%
    04:00 -23°C° 0 mm 3 m/s 768 mmHg 91%
    05:00 -24°C° 0 mm 3 m/s 768 mmHg 92%
    06:00 -23°C° 0 mm 2 m/s 767 mmHg 93%
    07:00 -21°C° 0 mm 2 m/s 767 mmHg 93%
    08:00 -20°C° 0 mm 2 m/s 767 mmHg 93%
    09:00 -19°C° 0 mm 2 m/s 768 mmHg 93%
    10:00 -18°C° 0 mm 2 m/s 767 mmHg 92%
    11:00 -17°C° 0 mm 2 m/s 767 mmHg 91%
    12:00 -15°C° 0 mm 2 m/s 767 mmHg 91%
    13:00 -15°C° 0.2 mm 2 m/s 767 mmHg 92%
    14:00 -15°C° 0.2 mm 2 m/s 767 mmHg 93%
    15:00 -15°C° 0.2 mm 2 m/s 766 mmHg 94%
    16:00 -15°C° 0.2 mm 2 m/s 766 mmHg 94%
    17:00 -15°C° 0.2 mm 2 m/s 766 mmHg 95%
    18:00 -15°C° 0.2 mm 2 m/s 766 mmHg 95%
    19:00 -16°C° 0.5 mm 3 m/s 766 mmHg 96%
    20:00 -16°C° 0.5 mm 3 m/s 766 mmHg 96%
    21:00 -16°C° 0.5 mm 3 m/s 765 mmHg 96%
    22:00 -16°C° 0.6 mm 3 m/s 765 mmHg 96%
    23:00 -15°C° 0.6 mm 3 m/s 765 mmHg 96%
    Arată mai mult